Time,TemperatureF,DewpointF,PressureIn,WindDirection,WindDirectionDegrees,WindSpeedMPH,WindSpeedGustMPH,Humidity,HourlyPrecipIn,Conditions,Clouds,dailyrainin,SolarRadiationWatts/m^2,SoftwareType,DateUTC
2013-06-08 00:03:00,57.3,54.7,29.92,East,99,0.0,0.0,91,0.00,BKN,,0.00,0.0,WeatherDisplay:10.37,2013-06-08 05:03:00,
2013-06-08 00:08:00,57.2,54.9,29.92,East,99,0.0,0.0,92,0.00,BKN,,0.00,0.0,WeatherDisplay:10.37,2013-06-08 05:08:00,
2013-06-08 00:13:00,57.2,54.9,29.92,East,99,0.0,0.0,92,0.00,BKN,,0.00,0.0,WeatherDisplay:10.37,2013-06-08 05:13:00,
2013-06-08 00:18:00,57.2,54.9,29.92,East,99,0.0,0.0,92,0.00,BKN,,0.00,0.0,WeatherDisplay:10.37,2013-06-08 05:18:00,
2013-06-08 00:23:00,57.0,55.0,29.92,East,99,0.0,0.0,93,0.00,BKN,,0.00,0.0,WeatherDisplay:10.37,2013-06-08 05:23:00,
2013-06-08 00:28:00,56.9,54.9,29.92,East,99,0.0,0.0,93,0.00,BKN,,0.00,0.0,WeatherDisplay:10.37,2013-06-08 05:28:00,
2013-06-08 00:33:00,56.9,54.9,29.92,East,99,0.0,0.0,93,0.00,BKN,,0.00,0.0,WeatherDisplay:10.37,2013-06-08 05:33:00,
2013-06-08 00:38:00,56.9,55.2,29.92,East,99,0.0,0.0,94,0.00,BKN,,0.00,0.0,WeatherDisplay:10.37,2013-06-08 05:38:00,
2013-06-08 00:43:00,56.7,55.0,29.92,East,99,0.0,0.0,94,0.00,BKN,,0.00,0.0,WeatherDisplay:10.37,2013-06-08 05:43:00,
2013-06-08 00:48:00,56.6,54.9,29.92,East,99,0.0,0.0,94,0.00,BKN,,0.00,0.0,WeatherDisplay:10.37,2013-06-08 05:48:00,
2013-06-08 00:53:00,56.5,54.8,29.92,East,99,0.0,0.0,94,0.00,BKN,,0.00,0.0,WeatherDisplay:10.37,2013-06-08 05:53:00,
2013-06-08 00:58:00,56.5,54.8,29.92,East,99,0.0,0.0,94,0.00,BKN,,0.00,0.0,WeatherDisplay:10.37,2013-06-08 05:58:00,
2013-06-08 01:03:00,56.3,54.6,29.91,East,99,0.0,0.0,94,0.00,BKN,,0.00,0.0,WeatherDisplay:10.37,2013-06-08 06:03:00,
2013-06-08 01:08:00,56.2,54.5,29.91,East,99,0.0,0.0,94,0.00,BKN,,0.00,0.0,WeatherDisplay:10.37,2013-06-08 06:08:00,
2013-06-08 01:13:00,56.0,54.3,29.91,East,99,0.0,0.0,94,0.00,BKN,,0.00,0.0,WeatherDisplay:10.37,2013-06-08 06:13:00,
2013-06-08 01:18:00,56.0,54.3,29.91,East,99,0.0,0.0,94,0.00,BKN,,0.00,0.0,WeatherDisplay:10.37,2013-06-08 06:18:00,
2013-06-08 01:23:00,55.9,54.2,29.91,East,99,0.0,0.0,94,0.00,BKN,,0.00,0.0,WeatherDisplay:10.37,2013-06-08 06:23:00,
2013-06-08 01:28:00,56.0,54.3,29.91,East,99,0.0,0.0,94,0.00,BKN,,0.00,0.0,WeatherDisplay:10.37,2013-06-08 06:28:00,
2013-06-08 01:33:00,55.9,54.2,29.91,East,99,0.0,0.0,94,0.00,BKN,,0.00,0.0,WeatherDisplay:10.37,2013-06-08 06:33:00,
2013-06-08 01:38:00,55.9,54.2,29.91,East,99,0.0,0.0,94,0.00,BKN,,0.00,0.0,WeatherDisplay:10.37,2013-06-08 06:38:00,
2013-06-08 01:43:00,55.7,54.3,29.91,East,99,0.0,0.0,95,0.00,BKN,,0.00,0.0,WeatherDisplay:10.37,2013-06-08 06:43:00,
2013-06-08 01:48:00,55.7,54.3,29.91,East,99,0.0,0.0,95,0.00,BKN,,0.00,0.0,WeatherDisplay:10.37,2013-06-08 06:48:00,
2013-06-08 01:53:00,55.7,54.3,29.91,East,99,0.0,0.0,95,0.00,BKN,,0.00,0.0,WeatherDisplay:10.37,2013-06-08 06:53:00,
2013-06-08 01:58:00,55.6,54.2,29.91,East,99,0.0,0.0,95,0.00,BKN,,0.00,0.0,WeatherDisplay:10.37,2013-06-08 06:58:00,
2013-06-08 02:03:00,55.6,54.2,29.91,East,99,0.0,0.0,95,0.00,BKN,,0.00,0.0,WeatherDisplay:10.37,2013-06-08 07:03:00,
2013-06-08 02:08:00,55.6,54.2,29.91,East,99,0.0,0.0,95,0.00,BKN,,0.00,0.0,WeatherDisplay:10.37,2013-06-08 07:08:00,
2013-06-08 02:13:00,55.6,54.2,29.91,East,99,0.0,0.0,95,0.00,BKN,,0.00,0.0,WeatherDisplay:10.37,2013-06-08 07:13:00,
2013-06-08 02:18:00,55.7,54.3,29.92,East,99,0.0,0.0,95,0.00,BKN,,0.00,0.0,WeatherDisplay:10.37,2013-06-08 07:18:00,
2013-06-08 02:23:00,55.7,54.6,29.92,East,99,0.0,0.0,96,0.00,BKN,,0.00,0.0,WeatherDisplay:10.37,2013-06-08 07:23:00,
2013-06-08 02:28:00,55.7,54.6,29.92,East,99,0.0,0.0,96,0.00,BKN,,0.00,0.0,WeatherDisplay:10.37,2013-06-08 07:28:00,
2013-06-08 02:33:00,55.7,54.6,29.92,East,99,0.0,0.0,96,0.00,BKN,,0.00,0.0,WeatherDisplay:10.37,2013-06-08 07:33:00,
2013-06-08 02:38:00,55.7,54.6,29.92,East,99,0.0,0.0,96,0.00,BKN,,0.00,0.0,WeatherDisplay:10.37,2013-06-08 07:38:00,
2013-06-08 02:43:00,55.7,54.6,29.92,East,99,0.0,0.0,96,0.00,BKN,,0.00,0.0,WeatherDisplay:10.37,2013-06-08 07:43:00,
2013-06-08 02:48:00,55.7,54.6,29.92,East,99,0.0,0.0,96,0.00,BKN,,0.00,0.0,WeatherDisplay:10.37,2013-06-08 07:48:00,
2013-06-08 02:53:00,55.7,54.6,29.92,East,99,0.0,0.0,96,0.00,BKN,,0.00,0.0,WeatherDisplay:10.37,2013-06-08 07:53:00,
2013-06-08 02:58:00,55.7,54.6,29.92,East,99,0.0,0.0,96,0.00,BKN,,0.00,0.0,WeatherDisplay:10.37,2013-06-08 07:58:00,
2013-06-08 03:03:00,55.7,54.6,29.92,SSE,159,0.4,2.4,96,0.00,BKN,,0.00,0.0,WeatherDisplay:10.37,2013-06-08 08:03:00,
2013-06-08 03:08:00,55.7,54.6,29.92,SSE,159,1.6,2.4,96,0.00,BKN,,0.00,0.0,WeatherDisplay:10.37,2013-06-08 08:08:00,
2013-06-08 03:13:00,55.9,54.5,29.92,SSE,159,0.0,0.0,95,0.00,BKN,,0.00,0.0,WeatherDisplay:10.37,2013-06-08 08:13:00,
2013-06-08 03:18:00,56.0,54.6,29.92,SSE,159,0.0,0.0,95,0.00,BKN,,0.00,0.0,WeatherDisplay:10.37,2013-06-08 08:18:00,
2013-06-08 03:23:00,56.2,54.5,29.92,SSE,159,0.0,0.0,94,0.00,BKN,,0.00,0.0,WeatherDisplay:10.37,2013-06-08 08:23:00,
2013-06-08 03:28:00,56.5,54.2,29.92,SSE,159,0.0,0.0,92,0.00,BKN,,0.00,0.0,WeatherDisplay:10.37,2013-06-08 08:28:00,
2013-06-08 03:33:00,56.7,53.8,29.91,SSE,159,0.0,0.0,90,0.00,BKN,,0.00,0.0,WeatherDisplay:10.37,2013-06-08 08:33:00,
2013-06-08 03:38:00,56.9,54.0,29.91,SSE,159,0.0,0.0,90,0.00,BKN,,0.00,0.0,WeatherDisplay:10.37,2013-06-08 08:38:00,
2013-06-08 03:43:00,56.9,53.7,29.91,SSE,159,0.0,0.0,89,0.00,BKN,,0.00,0.0,WeatherDisplay:10.37,2013-06-08 08:43:00,
2013-06-08 03:48:00,56.7,53.5,29.91,SSE,159,0.0,0.0,89,0.00,BKN,,0.00,0.0,WeatherDisplay:10.37,2013-06-08 08:48:00,
2013-06-08 03:53:00,56.7,53.5,29.91,SSE,159,0.0,0.0,89,0.00,BKN,,0.00,0.0,WeatherDisplay:10.37,2013-06-08 08:53:00,
2013-06-08 03:58:00,56.7,53.5,29.91,SSE,159,0.0,0.0,89,0.00,BKN,,0.00,0.0,WeatherDisplay:10.37,2013-06-08 08:58:00,
2013-06-08 04:03:00,56.7,53.8,29.91,SSE,159,0.0,0.0,90,0.00,BKN,,0.00,0.0,WeatherDisplay:10.37,2013-06-08 09:03:00,
2013-06-08 04:08:00,56.6,53.7,29.91,SSE,159,0.0,0.0,90,0.00,BKN,,0.00,0.0,WeatherDisplay:10.37,2013-06-08 09:08:00,
2013-06-08 04:13:00,56.5,53.6,29.91,SSE,159,0.0,0.0,90,0.00,BKN,,0.00,0.0,WeatherDisplay:10.37,2013-06-08 09:13:00,
2013-06-08 04:18:00,56.5,53.9,29.91,SSE,159,0.0,0.0,91,0.00,BKN,,0.00,0.0,WeatherDisplay:10.37,2013-06-08 09:18:00,
2013-06-08 04:23:00,56.5,53.9,29.91,SSE,159,0.0,0.0,91,0.00,BKN,,0.00,0.0,WeatherDisplay:10.37,2013-06-08 09:23:00,
2013-06-08 04:28:00,56.3,53.7,29.91,SSE,159,0.0,0.0,91,0.00,BKN,,0.00,0.0,WeatherDisplay:10.37,2013-06-08 09:28:00,
2013-06-08 04:33:00,56.3,53.7,29.91,SSE,159,0.0,0.0,91,0.00,BKN,,0.00,0.0,WeatherDisplay:10.37,2013-06-08 09:33:00,
2013-06-08 04:38:00,56.3,53.7,29.91,SSE,159,0.0,0.0,91,0.00,BKN,,0.00,0.0,WeatherDisplay:10.37,2013-06-08 09:38:00,
2013-06-08 04:43:00,56.3,53.7,29.91,SSE,159,0.0,0.0,91,0.00,-RA,,0.00,0.0,WeatherDisplay:10.37,2013-06-08 09:43:00,
2013-06-08 04:48:00,56.3,53.7,29.91,SSE,159,0.0,0.0,91,0.00,-RA,,0.00,0.0,WeatherDisplay:10.37,2013-06-08 09:48:00,
2013-06-08 04:53:00,56.5,53.9,29.91,SSE,159,0.0,0.0,91,0.00,-RA,,0.00,0.0,WeatherDisplay:10.37,2013-06-08 09:53:00,
2013-06-08 04:58:00,56.6,54.0,29.91,SSE,159,0.0,0.0,91,0.00,-RA,,0.00,0.0,WeatherDisplay:10.37,2013-06-08 09:58:00,
2013-06-08 05:03:00,56.5,53.9,29.91,SSE,159,0.0,0.0,91,0.00,-RA,,0.00,0.0,WeatherDisplay:10.37,2013-06-08 10:03:00,
2013-06-08 05:08:00,56.5,53.9,29.91,SSE,159,0.0,0.0,91,0.00,-RA,,0.00,0.0,WeatherDisplay:10.37,2013-06-08 10:08:00,
2013-06-08 05:13:00,56.5,53.9,29.91,SSE,159,0.0,0.0,91,0.00, +RA,,0.00,0.0,WeatherDisplay:10.37,2013-06-08 10:13:00,
2013-06-08 05:18:00,56.5,54.2,29.91,SSE,159,0.0,0.0,92,0.00, +RA,,0.00,0.0,WeatherDisplay:10.37,2013-06-08 10:18:00,
2013-06-08 05:23:00,56.3,53.7,29.91,SSE,159,0.0,0.0,91,0.00,-RA,,0.00,0.0,WeatherDisplay:10.37,2013-06-08 10:23:00,
2013-06-08 05:28:00,56.3,54.0,29.91,SSE,159,0.0,0.0,92,0.00,-RA,,0.00,0.0,WeatherDisplay:10.37,2013-06-08 10:28:00,
2013-06-08 05:33:00,56.3,54.0,29.91,SSE,159,0.0,0.0,92,0.00,-RA,,0.00,0.0,WeatherDisplay:10.37,2013-06-08 10:33:00,
2013-06-08 05:38:00,56.5,54.2,29.91,SSE,159,0.0,0.0,92,0.00,-RA,,0.00,0.0,WeatherDisplay:10.37,2013-06-08 10:38:00,
2013-06-08 05:43:00,56.3,54.0,29.91,SSE,159,0.0,0.0,92,0.00,BKN,,0.00,7.0,WeatherDisplay:10.37,2013-06-08 10:43:00,
2013-06-08 05:48:00,56.3,54.0,29.92,SSE,159,0.0,0.0,92,0.00,BKN,,0.00,7.0,WeatherDisplay:10.37,2013-06-08 10:48:00,
2013-06-08 05:53:00,56.2,53.9,29.92,SSE,159,0.0,0.0,92,0.00,BKN,,0.00,9.0,WeatherDisplay:10.37,2013-06-08 10:53:00,
2013-06-08 05:58:00,56.2,54.2,29.92,SSE,159,0.0,0.0,93,0.00,BKN,,0.00,12.0,WeatherDisplay:10.37,2013-06-08 10:58:00,
2013-06-08 06:03:00,56.2,54.2,29.92,SSE,159,0.0,0.0,93,0.00,BKN,,0.00,14.0,WeatherDisplay:10.37,2013-06-08 11:03:00,
2013-06-08 06:08:00,56.3,54.3,29.92,SSE,159,0.0,0.0,93,0.00,BKN,,0.00,19.0,WeatherDisplay:10.37,2013-06-08 11:08:00,
2013-06-08 06:13:00,56.2,54.2,29.92,SSE,159,0.0,0.0,93,0.00,BKN,,0.00,23.0,WeatherDisplay:10.37,2013-06-08 11:13:00,
2013-06-08 06:18:00,56.3,54.3,29.92,SSE,159,0.0,0.0,93,0.00,BKN,,0.00,28.0,WeatherDisplay:10.37,2013-06-08 11:18:00,
2013-06-08 06:23:00,56.3,54.3,29.92,SSE,159,0.0,0.0,93,0.00,BKN,,0.00,33.0,WeatherDisplay:10.37,2013-06-08 11:23:00,
2013-06-08 06:28:00,56.3,54.3,29.92,SSE,159,0.0,0.0,93,0.00,BKN,,0.00,37.0,WeatherDisplay:10.37,2013-06-08 11:28:00,
2013-06-08 06:33:00,56.5,54.5,29.92,SSE,159,0.1,1.2,93,0.00,BKN,,0.00,49.0,WeatherDisplay:10.37,2013-06-08 11:33:00,
2013-06-08 06:38:00,56.6,54.6,29.92,SE,146,0.5,1.2,93,0.00,BKN,,0.00,53.0,WeatherDisplay:10.37,2013-06-08 11:38:00,
2013-06-08 06:43:00,56.6,54.3,29.92,SE,146,0.0,0.0,92,0.00,BKN,,0.00,42.0,WeatherDisplay:10.37,2013-06-08 11:43:00,
2013-06-08 06:48:00,56.5,54.2,29.93,SE,127,0.0,2.3,92,0.00,BKN,,0.00,37.0,WeatherDisplay:10.37,2013-06-08 11:48:00,
2013-06-08 06:53:00,56.5,53.9,29.93,SE,127,0.0,0.0,91,0.00,BKN,,0.00,37.0,WeatherDisplay:10.37,2013-06-08 11:53:00,
2013-06-08 06:58:00,56.5,53.9,29.93,SE,127,0.0,0.0,91,0.00,BKN,,0.00,42.0,WeatherDisplay:10.37,2013-06-08 11:58:00,
2013-06-08 07:03:00,56.5,53.9,29.93,SE,127,0.0,0.0,91,0.00,BKN,,0.00,46.0,WeatherDisplay:10.37,2013-06-08 12:03:00,
2013-06-08 07:08:00,56.6,54.0,29.93,SE,127,0.0,0.0,91,0.00,BKN,,0.00,53.0,WeatherDisplay:10.37,2013-06-08 12:08:00,
2013-06-08 07:13:00,56.6,53.7,29.93,SE,126,0.0,0.0,90,0.00,BKN,,0.00,53.0,WeatherDisplay:10.37,2013-06-08 12:13:00,
2013-06-08 07:18:00,56.6,53.7,29.93,ESE,108,0.0,1.2,90,0.00,BKN,,0.00,60.0,WeatherDisplay:10.37,2013-06-08 12:18:00,
2013-06-08 07:23:00,56.9,54.0,29.93,East,82,0.0,0.0,90,0.00,BKN,,0.00,77.0,WeatherDisplay:10.37,2013-06-08 12:23:00,
2013-06-08 07:28:00,57.0,53.8,29.93,East,82,0.0,0.0,89,0.00,BKN,,0.00,67.0,WeatherDisplay:10.37,2013-06-08 12:28:00,
2013-06-08 07:33:00,57.2,54.0,29.93,East,82,0.0,0.0,89,0.00,BKN,,0.00,69.0,WeatherDisplay:10.37,2013-06-08 12:33:00,
2013-06-08 07:38:00,57.2,54.0,29.93,East,82,0.0,0.0,89,0.00,BKN,,0.00,86.0,WeatherDisplay:10.37,2013-06-08 12:38:00,
2013-06-08 07:43:00,57.2,54.0,29.93,East,82,0.0,0.0,89,0.00,BKN,,0.00,86.0,WeatherDisplay:10.37,2013-06-08 12:43:00,
2013-06-08 07:48:00,57.3,54.1,29.93,East,82,0.0,0.0,89,0.00,BKN,,0.00,72.0,WeatherDisplay:10.37,2013-06-08 12:48:00,
2013-06-08 07:53:00,57.5,54.3,29.93,East,82,0.0,0.0,89,0.00,BKN,,0.00,42.0,WeatherDisplay:10.37,2013-06-08 12:53:00,
2013-06-08 07:58:00,57.5,54.3,29.93,East,84,0.0,1.2,89,0.00,BKN,,0.00,33.0,WeatherDisplay:10.37,2013-06-08 12:58:00,
2013-06-08 08:03:00,57.3,54.1,29.94,East,84,0.0,0.0,89,0.00,BKN,,0.00,44.0,WeatherDisplay:10.37,2013-06-08 13:03:00,
2013-06-08 08:08:00,57.2,54.3,29.94,East,84,1.8,3.6,90,0.01,RA,,0.01,51.0,WeatherDisplay:10.37,2013-06-08 13:08:00,
2013-06-08 08:13:00,57.0,54.4,29.94,East,84,0.0,0.0,91,0.01,RA,,0.01,51.0,WeatherDisplay:10.37,2013-06-08 13:13:00,
2013-06-08 08:18:00,56.9,54.3,29.94,East,84,0.0,1.2,91,0.01,BKN,,0.01,47.0,WeatherDisplay:10.37,2013-06-08 13:18:00,
2013-06-08 08:23:00,56.7,54.1,29.94,East,84,0.0,0.0,91,0.01,BKN,,0.02,56.0,WeatherDisplay:10.37,2013-06-08 13:23:00,
2013-06-08 08:28:00,56.7,54.4,29.94,East,84,0.0,2.3,92,0.02,RA,,0.02,69.0,WeatherDisplay:10.37,2013-06-08 13:28:00,
2013-06-08 08:33:00,56.7,54.4,29.94,East,84,0.0,0.0,92,0.02,RA,,0.02,83.0,WeatherDisplay:10.37,2013-06-08 13:33:00,
2013-06-08 08:38:00,56.6,54.6,29.94,ENE,77,0.0,1.2,93,0.02,BKN,,0.02,104.0,WeatherDisplay:10.37,2013-06-08 13:38:00,
2013-06-08 08:43:00,56.6,54.6,29.94,ENE,78,0.0,0.0,93,0.02,BKN,,0.02,114.0,WeatherDisplay:10.37,2013-06-08 13:43:00,
2013-06-08 08:48:00,56.7,54.7,29.95,ENE,78,0.0,0.0,93,0.02,BKN,,0.02,134.0,WeatherDisplay:10.37,2013-06-08 13:48:00,
2013-06-08 08:53:00,56.7,54.7,29.95,ENE,78,0.0,1.2,93,0.02,BKN,,0.02,100.0,WeatherDisplay:10.37,2013-06-08 13:53:00,
2013-06-08 08:58:00,56.7,54.7,29.95,ENE,78,0.0,0.0,93,0.02,BKN,,0.02,105.0,WeatherDisplay:10.37,2013-06-08 13:58:00,
2013-06-08 09:03:00,56.7,54.7,29.96,East,86,0.0,1.2,93,0.02,BKN,,0.02,155.0,WeatherDisplay:10.37,2013-06-08 14:03:00,
2013-06-08 09:08:00,56.9,54.9,29.96,East,86,0.0,0.0,93,0.01,BKN,,0.02,185.0,WeatherDisplay:10.37,2013-06-08 14:08:00,
2013-06-08 09:13:00,57.2,55.2,29.96,East,86,0.0,0.0,93,0.01,BKN,,0.02,229.0,WeatherDisplay:10.37,2013-06-08 14:13:00,
2013-06-08 09:18:00,57.5,55.5,29.96,East,88,0.0,0.0,93,0.01,BKN,,0.02,258.0,WeatherDisplay:10.37,2013-06-08 14:18:00,
2013-06-08 09:23:00,57.6,55.3,29.96,East,88,0.1,1.2,92,0.00,BKN,,0.02,418.0,WeatherDisplay:10.37,2013-06-08 14:23:00,
2013-06-08 09:28:00,58.1,55.8,29.96,East,88,0.0,0.0,92,0.00,SCT,,0.02,552.0,WeatherDisplay:10.37,2013-06-08 14:28:00,
2013-06-08 09:33:00,58.6,56.0,29.96,South,180,0.0,0.0,91,0.00,SCT,,0.02,499.0,WeatherDisplay:10.37,2013-06-08 14:33:00,
2013-06-08 09:38:00,59.2,56.3,29.96,East,85,0.0,0.0,90,0.00,BKN,,0.02,278.0,WeatherDisplay:10.37,2013-06-08 14:38:00,
2013-06-08 09:43:00,59.3,55.7,29.96,SSE,160,0.0,1.2,88,0.00,BKN,,0.02,269.0,WeatherDisplay:10.37,2013-06-08 14:43:00,
2013-06-08 09:48:00,59.5,55.3,29.94,SSE,161,0.0,1.2,86,0.00,BKN,,0.02,301.0,WeatherDisplay:10.37,2013-06-08 14:48:00,
2013-06-08 09:53:00,59.6,55.1,29.94,ESE,104,0.1,1.2,85,0.00,BKN,,0.02,754.0,WeatherDisplay:10.37,2013-06-08 14:53:00,
2013-06-08 09:58:00,60.2,55.0,29.94,ENE,63,0.6,4.6,83,0.00,FEW,,0.02,754.0,WeatherDisplay:10.37,2013-06-08 14:58:00,
2013-06-08 10:03:00,61.0,54.8,29.95,SSW,202,0.0,1.2,80,0.00,FEW,,0.02,439.0,WeatherDisplay:10.37,2013-06-08 15:03:00,
2013-06-08 10:08:00,61.5,54.2,29.95,SE,139,2.3,6.0,77,0.00,SCT,,0.02,418.0,WeatherDisplay:10.37,2013-06-08 15:08:00,
2013-06-08 10:13:00,61.6,53.6,29.95,East,82,0.0,0.0,75,0.00,SCT,,0.02,489.0,WeatherDisplay:10.37,2013-06-08 15:13:00,
2013-06-08 10:18:00,62.1,54.4,29.95,ENE,78,1.3,3.6,76,0.00,BKN,,0.02,304.0,WeatherDisplay:10.37,2013-06-08 15:18:00,
2013-06-08 10:23:00,62.1,53.7,29.95,East,79,0.0,0.0,74,0.00,BKN,,0.02,265.0,WeatherDisplay:10.37,2013-06-08 15:23:00,
2013-06-08 10:28:00,62.0,54.0,29.95,East,92,1.0,4.8,75,0.00,BKN,,0.02,269.0,WeatherDisplay:10.37,2013-06-08 15:28:00,
2013-06-08 10:33:00,62.1,54.1,29.96,East,93,0.0,0.0,75,0.00,BKN,,0.02,294.0,WeatherDisplay:10.37,2013-06-08 15:33:00,
2013-06-08 10:38:00,62.3,55.0,29.96,East,88,0.0,0.0,77,0.00,BKN,,0.02,332.0,WeatherDisplay:10.37,2013-06-08 15:38:00,
2013-06-08 10:43:00,62.1,53.7,29.96,East,88,0.0,0.0,74,0.00,BKN,,0.02,325.0,WeatherDisplay:10.37,2013-06-08 15:43:00,
2013-06-08 10:48:00,62.3,53.9,29.96,East,88,1.1,3.6,74,0.00,BKN,,0.02,380.0,WeatherDisplay:10.37,2013-06-08 15:48:00,
2013-06-08 10:53:00,62.3,53.5,29.96,East,83,1.8,3.6,73,0.00,BKN,,0.02,410.0,WeatherDisplay:10.37,2013-06-08 15:53:00,
2013-06-08 10:58:00,62.4,53.3,29.96,ESE,108,0.0,4.6,72,0.00,BKN,,0.02,362.0,WeatherDisplay:10.37,2013-06-08 15:58:00,
2013-06-08 11:03:00,62.6,53.8,29.96,ESE,121,2.6,7.2,73,0.00,BKN,,0.02,336.0,WeatherDisplay:10.37,2013-06-08 16:03:00,
2013-06-08 11:08:00,62.7,53.5,29.96,ENE,67,0.0,1.2,72,0.00,BKN,,0.02,269.0,WeatherDisplay:10.37,2013-06-08 16:08:00,
2013-06-08 11:13:00,62.9,53.7,29.96,ENE,73,2.0,4.8,72,0.00,BKN,,0.02,304.0,WeatherDisplay:10.37,2013-06-08 16:13:00,
2013-06-08 11:18:00,62.9,53.4,29.97,ENE,68,0.0,3.5,71,0.00,BKN,,0.02,269.0,WeatherDisplay:10.37,2013-06-08 16:18:00,
2013-06-08 11:23:00,62.9,53.4,29.97,ENE,67,0.9,3.6,71,0.00,BKN,,0.02,278.0,WeatherDisplay:10.37,2013-06-08 16:23:00,
2013-06-08 11:28:00,62.9,53.0,29.97,East,82,0.0,1.2,70,0.00,BKN,,0.02,503.0,WeatherDisplay:10.37,2013-06-08 16:28:00,
2013-06-08 11:33:00,63.5,53.9,29.97,ENE,62,0.6,3.6,71,0.00,BKN,,0.02,840.0,WeatherDisplay:10.37,2013-06-08 16:33:00,
2013-06-08 11:38:00,64.7,53.9,29.97,East,91,1.6,4.8,68,0.00,SCT,,0.02,594.0,WeatherDisplay:10.37,2013-06-08 16:38:00,
2013-06-08 11:43:00,65.0,54.6,29.97,East,86,0.0,1.2,69,0.00,SCT,,0.02,606.0,WeatherDisplay:10.37,2013-06-08 16:43:00,
2013-06-08 11:48:00,65.2,54.4,29.97,East,79,1.2,5.8,68,0.00,SCT,,0.02,515.0,WeatherDisplay:10.37,2013-06-08 16:48:00,
2013-06-08 11:53:00,66.0,54.7,29.97,SSE,168,0.3,2.4,67,0.00,SCT,,0.02,842.0,WeatherDisplay:10.37,2013-06-08 16:53:00,
2013-06-08 11:58:00,66.0,54.7,29.97,SE,146,1.2,6.0,67,0.00,BKN,,0.02,545.0,WeatherDisplay:10.37,2013-06-08 16:58:00,
2013-06-08 12:03:00,65.8,53.7,29.97,East,96,2.4,7.2,65,0.00,SCT,,0.02,796.0,WeatherDisplay:10.37,2013-06-08 17:03:00,
2013-06-08 12:08:00,66.4,54.7,29.97,South,169,0.0,1.2,66,0.00,BKN,,0.02,371.0,WeatherDisplay:10.37,2013-06-08 17:08:00,
2013-06-08 12:13:00,66.3,54.2,29.97,SSE,151,0.0,1.2,65,0.00,BKN,,0.02,302.0,WeatherDisplay:10.37,2013-06-08 17:13:00,
2013-06-08 12:18:00,66.0,54.3,29.96,SE,138,0.2,2.4,66,0.00,BKN,,0.02,223.0,WeatherDisplay:10.37,2013-06-08 17:18:00,
2013-06-08 12:23:00,65.3,52.4,29.96,SE,134,0.7,2.4,63,0.00,-RA,,0.02,229.0,WeatherDisplay:10.37,2013-06-08 17:23:00,
2013-06-08 12:28:00,65.2,52.7,29.96,East,84,1.2,4.8,64,0.00,-RA,,0.02,260.0,WeatherDisplay:10.37,2013-06-08 17:28:00,
2013-06-08 12:33:00,64.8,54.0,29.96,East,97,1.8,7.2,68,0.00,-RA,,0.02,274.0,WeatherDisplay:10.37,2013-06-08 17:33:00,
2013-06-08 12:38:00,64.8,54.8,29.96,ENE,77,0.0,2.4,70,0.00,-RA,,0.02,313.0,WeatherDisplay:10.37,2013-06-08 17:38:00,
2013-06-08 12:43:00,64.7,54.3,29.96,East,92,1.5,3.6,69,0.00,BKN,,0.02,304.0,WeatherDisplay:10.37,2013-06-08 17:43:00,
2013-06-08 12:48:00,64.5,54.1,29.96,ENE,57,1.1,3.6,69,0.00,BKN,,0.02,297.0,WeatherDisplay:10.37,2013-06-08 17:48:00,
2013-06-08 12:53:00,64.7,54.7,29.96,East,94,1.9,7.2,70,0.00,BKN,,0.02,287.0,WeatherDisplay:10.37,2013-06-08 17:53:00,
2013-06-08 12:58:00,64.5,54.5,29.96,ENE,61,3.6,9.2,70,0.00,BKN,,0.02,288.0,WeatherDisplay:10.37,2013-06-08 17:58:00,
2013-06-08 13:03:00,64.2,54.2,29.96,East,94,1.3,6.0,70,0.00,BKN,,0.02,290.0,WeatherDisplay:10.37,2013-06-08 18:03:00,
2013-06-08 13:08:00,64.0,55.5,29.96,ESE,103,0.1,6.9,74,0.00,BKN,,0.02,359.0,WeatherDisplay:10.37,2013-06-08 18:08:00,
2013-06-08 13:13:00,64.0,55.9,29.96,ENE,63,3.6,9.6,75,0.00,BKN,,0.02,425.0,WeatherDisplay:10.37,2013-06-08 18:13:00,
2013-06-08 13:18:00,63.9,55.4,29.96,NE,56,0.1,3.5,74,0.00,BKN,,0.02,424.0,WeatherDisplay:10.37,2013-06-08 18:18:00,
2013-06-08 13:23:00,64.0,55.5,29.96,East,91,1.1,3.6,74,0.00,BKN,,0.02,345.0,WeatherDisplay:10.37,2013-06-08 18:23:00,
2013-06-08 13:28:00,63.9,55.1,29.96,ENE,67,0.5,5.8,73,0.00,BKN,,0.02,251.0,WeatherDisplay:10.37,2013-06-08 18:28:00,
2013-06-08 13:33:00,63.9,55.1,29.96,East,101,2.1,10.8,73,0.00,BKN,,0.02,257.0,WeatherDisplay:10.37,2013-06-08 18:33:00,
2013-06-08 13:38:00,64.0,54.4,29.96,ESE,103,2.4,7.2,71,0.00,BKN,,0.02,239.0,WeatherDisplay:10.37,2013-06-08 18:38:00,
2013-06-08 13:43:00,64.0,54.0,29.96,East,93,3.6,6.0,70,0.00,BKN,,0.02,213.0,WeatherDisplay:10.37,2013-06-08 18:43:00,
2013-06-08 13:48:00,64.0,53.6,29.96,NE,47,4.6,10.8,69,0.00,BKN,,0.02,199.0,WeatherDisplay:10.37,2013-06-08 18:48:00,
2013-06-08 13:53:00,64.0,53.6,29.96,East,87,0.0,0.0,69,0.00,BKN,,0.02,200.0,WeatherDisplay:10.37,2013-06-08 18:53:00,
2013-06-08 13:58:00,64.3,53.9,29.96,East,83,0.0,4.6,69,0.00,BKN,,0.02,195.0,WeatherDisplay:10.37,2013-06-08 18:58:00,
2013-06-08 14:03:00,64.5,53.7,29.96,ENE,69,0.0,4.6,68,0.00,BKN,,0.02,190.0,WeatherDisplay:10.37,2013-06-08 19:03:00,
2013-06-08 14:08:00,64.5,53.3,29.96,East,94,0.0,1.2,67,0.00,BKN,,0.02,171.0,WeatherDisplay:10.37,2013-06-08 19:08:00,
2013-06-08 14:13:00,64.7,53.5,29.96,ENE,76,0.2,4.6,67,0.00,BKN,,0.02,160.0,WeatherDisplay:10.37,2013-06-08 19:13:00,
2013-06-08 14:18:00,64.5,52.5,29.96,East,80,3.7,7.2,65,0.00,BKN,,0.02,153.0,WeatherDisplay:10.37,2013-06-08 19:18:00,
2013-06-08 14:23:00,64.5,52.0,29.96,East,90,1.0,6.0,64,0.00,BKN,,0.02,141.0,WeatherDisplay:10.37,2013-06-08 19:23:00,
2013-06-08 14:28:00,64.5,51.6,29.96,ENE,78,0.5,3.5,63,0.00,BKN,,0.02,141.0,WeatherDisplay:10.37,2013-06-08 19:28:00,
2013-06-08 14:33:00,64.7,51.8,29.96,East,84,0.0,2.3,63,0.00,BKN,,0.02,146.0,WeatherDisplay:10.37,2013-06-08 19:33:00,
2013-06-08 14:38:00,64.8,51.9,29.96,East,84,0.0,0.0,63,0.00,BKN,,0.02,142.0,WeatherDisplay:10.37,2013-06-08 19:38:00,
2013-06-08 14:43:00,65.0,52.5,29.96,East,82,0.0,0.0,64,0.00,BKN,,0.02,146.0,WeatherDisplay:10.37,2013-06-08 19:43:00,
2013-06-08 14:48:00,65.0,52.5,29.96,ENE,78,0.0,0.0,64,0.00,BKN,,0.02,134.0,WeatherDisplay:10.37,2013-06-08 19:48:00,
2013-06-08 14:53:00,65.0,52.9,29.96,ENE,78,0.9,3.6,65,0.00,BKN,,0.02,185.0,WeatherDisplay:10.37,2013-06-08 19:53:00,
2013-06-08 14:58:00,65.0,53.8,29.96,ENE,66,0.0,0.0,67,0.00,BKN,,0.02,236.0,WeatherDisplay:10.37,2013-06-08 19:58:00,
2013-06-08 15:03:00,65.2,53.1,29.96,ENE,76,1.2,4.8,65,0.00,BKN,,0.02,230.0,WeatherDisplay:10.37,2013-06-08 20:03:00,
2013-06-08 15:08:00,65.3,52.8,29.96,East,92,2.4,6.0,64,0.00,BKN,,0.02,218.0,WeatherDisplay:10.37,2013-06-08 20:08:00,
2013-06-08 15:13:00,65.5,53.0,29.96,East,82,1.7,7.2,64,0.00,BKN,,0.02,218.0,WeatherDisplay:10.37,2013-06-08 20:13:00,
2013-06-08 15:18:00,65.6,53.5,29.96,East,88,2.8,4.8,65,0.00,BKN,,0.02,281.0,WeatherDisplay:10.37,2013-06-08 20:18:00,
2013-06-08 15:23:00,65.8,53.3,29.96,East,82,0.9,2.4,64,0.00,BKN,,0.02,278.0,WeatherDisplay:10.37,2013-06-08 20:23:00,
2013-06-08 15:28:00,66.1,53.1,29.96,East,83,0.0,0.0,63,0.00,BKN,,0.02,241.0,WeatherDisplay:10.37,2013-06-08 20:28:00,
2013-06-08 15:33:00,66.3,52.9,29.96,ESE,115,0.1,1.2,62,0.00,BKN,,0.02,271.0,WeatherDisplay:10.37,2013-06-08 20:33:00,
2013-06-08 15:38:00,66.4,53.4,29.96,ESE,115,0.5,2.4,63,0.00,BKN,,0.02,285.0,WeatherDisplay:10.37,2013-06-08 20:38:00,
2013-06-08 15:43:00,66.8,53.8,29.96,East,98,0.4,2.4,63,0.00,BKN,,0.02,301.0,WeatherDisplay:10.37,2013-06-08 20:43:00,
2013-06-08 15:48:00,66.9,53.9,29.96,East,80,1.4,4.8,63,0.00,BKN,,0.02,306.0,WeatherDisplay:10.37,2013-06-08 20:48:00,
2013-06-08 15:53:00,66.9,53.5,29.96,NE,35,1.3,5.8,62,0.00,BKN,,0.02,272.0,WeatherDisplay:10.37,2013-06-08 20:53:00,
2013-06-08 15:58:00,66.8,53.4,29.96,East,80,0.6,4.8,62,0.00,BKN,,0.02,239.0,WeatherDisplay:10.37,2013-06-08 20:58:00,
2013-06-08 16:03:00,66.9,53.9,29.96,NE,56,0.1,1.2,63,0.00,BKN,,0.02,239.0,WeatherDisplay:10.37,2013-06-08 21:03:00,
2013-06-08 16:08:00,67.3,54.3,29.96,ENE,78,0.0,0.0,63,0.00,BKN,,0.02,255.0,WeatherDisplay:10.37,2013-06-08 21:08:00,
2013-06-08 16:13:00,67.4,54.4,29.96,NE,37,0.3,3.6,63,0.00,BKN,,0.02,257.0,WeatherDisplay:10.37,2013-06-08 21:13:00,
2013-06-08 16:18:00,67.3,54.3,29.96,East,84,0.1,1.2,63,0.00,BKN,,0.02,236.0,WeatherDisplay:10.37,2013-06-08 21:18:00,
2013-06-08 16:23:00,67.3,54.7,29.96,East,93,0.0,0.0,64,0.00,BKN,,0.02,244.0,WeatherDisplay:10.37,2013-06-08 21:23:00,
2013-06-08 16:28:00,67.1,54.5,29.96,East,82,1.2,4.8,64,0.00,BKN,,0.02,253.0,WeatherDisplay:10.37,2013-06-08 21:28:00,
2013-06-08 16:33:00,67.1,54.9,29.96,East,80,0.0,1.2,65,0.00,BKN,,0.02,250.0,WeatherDisplay:10.37,2013-06-08 21:33:00,
2013-06-08 16:38:00,66.9,55.2,29.96,East,86,0.0,0.0,66,0.00,BKN,,0.02,230.0,WeatherDisplay:10.37,2013-06-08 21:38:00,
2013-06-08 16:43:00,66.9,54.3,29.96,East,90,0.0,6.9,64,0.00,-RA,,0.02,216.0,WeatherDisplay:10.37,2013-06-08 21:43:00,
2013-06-08 16:48:00,67.1,54.9,29.96,ENE,63,0.8,2.4,65,0.00,-RA,,0.02,204.0,WeatherDisplay:10.37,2013-06-08 21:48:00,
2013-06-08 16:53:00,67.3,55.1,29.96,ENE,65,0.0,0.0,65,0.00,-RA,,0.02,207.0,WeatherDisplay:10.37,2013-06-08 21:53:00,
2013-06-08 16:58:00,67.4,54.4,29.96,ENE,65,0.1,1.2,63,0.00,-RA,,0.02,195.0,WeatherDisplay:10.37,2013-06-08 21:58:00,
2013-06-08 17:03:00,67.8,54.3,29.97,ENE,65,0.0,1.2,62,0.00,-RA,,0.02,185.0,WeatherDisplay:10.37,2013-06-08 22:03:00,
2013-06-08 17:08:00,67.9,54.4,29.97,ENE,65,0.0,0.0,62,0.00,-RA,,0.02,178.0,WeatherDisplay:10.37,2013-06-08 22:08:00,
2013-06-08 17:13:00,68.1,54.1,29.97,ENE,65,0.0,0.0,61,0.00,-DZ,,0.02,174.0,WeatherDisplay:10.37,2013-06-08 22:13:00,
2013-06-08 17:18:00,68.3,54.3,29.96,ENE,65,0.0,0.0,61,0.00,-DZ,,0.02,156.0,WeatherDisplay:10.37,2013-06-08 22:18:00,
2013-06-08 17:23:00,68.4,54.4,29.96,ENE,65,0.0,1.2,61,0.00,BKN,,0.02,160.0,WeatherDisplay:10.37,2013-06-08 22:23:00,
2013-06-08 17:28:00,68.1,52.8,29.96,ENE,65,0.0,0.0,58,0.00,BKN,,0.02,172.0,WeatherDisplay:10.37,2013-06-08 22:28:00,
2013-06-08 17:33:00,68.1,51.8,29.96,ENE,71,2.0,4.8,56,0.00,BKN,,0.02,158.0,WeatherDisplay:10.37,2013-06-08 22:33:00,
2013-06-08 17:38:00,68.1,52.8,29.96,ENE,71,0.0,0.0,58,0.00,BKN,,0.02,155.0,WeatherDisplay:10.37,2013-06-08 22:38:00,
2013-06-08 17:43:00,68.3,53.4,29.96,ENE,71,0.0,1.2,59,0.00,BKN,,0.02,172.0,WeatherDisplay:10.37,2013-06-08 22:43:00,
2013-06-08 17:48:00,68.1,53.2,29.96,ENE,71,0.0,0.0,59,0.00,BKN,,0.02,167.0,WeatherDisplay:10.37,2013-06-08 22:48:00,
2013-06-08 17:53:00,68.1,53.2,29.96,ENE,71,0.0,0.0,59,0.00,BKN,,0.02,153.0,WeatherDisplay:10.37,2013-06-08 22:53:00,
2013-06-08 17:58:00,68.1,52.3,29.96,ENE,71,0.1,2.3,57,0.00,BKN,,0.02,153.0,WeatherDisplay:10.37,2013-06-08 22:58:00,
2013-06-08 18:03:00,68.1,52.3,29.96,ENE,71,0.1,1.2,57,0.00,BKN,,0.02,155.0,WeatherDisplay:10.37,2013-06-08 23:03:00,
2013-06-08 18:08:00,67.9,52.1,29.96,ENE,71,0.0,0.0,57,0.00,BKN,,0.02,171.0,WeatherDisplay:10.37,2013-06-08 23:08:00,
2013-06-08 18:13:00,67.9,52.6,29.96,ENE,71,0.0,0.0,58,0.00,BKN,,0.02,236.0,WeatherDisplay:10.37,2013-06-08 23:13:00,
2013-06-08 18:18:00,68.1,52.8,29.96,ENE,71,0.3,1.2,58,0.00,BKN,,0.02,311.0,WeatherDisplay:10.37,2013-06-08 23:18:00,
2013-06-08 18:23:00,68.4,52.6,29.96,ENE,74,1.3,3.6,57,0.00,BKN,,0.02,244.0,WeatherDisplay:10.37,2013-06-08 23:23:00,
2013-06-08 18:28:00,68.4,52.1,29.96,SW,225,1.0,2.4,56,0.00,BKN,,0.02,223.0,WeatherDisplay:10.37,2013-06-08 23:28:00,
2013-06-08 18:33:00,68.4,52.6,29.95,SSW,198,1.8,3.6,57,0.00,BKN,,0.02,130.0,WeatherDisplay:10.37,2013-06-08 23:33:00,
2013-06-08 18:38:00,68.3,52.5,29.95,East,79,1.9,6.0,57,0.00,BKN,,0.02,95.0,WeatherDisplay:10.37,2013-06-08 23:38:00,
2013-06-08 18:43:00,67.8,52.0,29.95,NE,38,3.8,7.2,57,0.00,BKN,,0.02,91.0,WeatherDisplay:10.37,2013-06-08 23:43:00,
2013-06-08 18:48:00,67.6,52.8,29.96,East,94,0.8,4.8,59,0.00,BKN,,0.02,102.0,WeatherDisplay:10.37,2013-06-08 23:48:00,
2013-06-08 18:53:00,67.3,52.5,29.96,NE,55,0.1,1.2,59,0.00,BKN,,0.02,120.0,WeatherDisplay:10.37,2013-06-08 23:53:00,
2013-06-08 18:58:00,67.3,52.9,29.96,East,80,0.0,3.5,60,0.00,BKN,,0.02,169.0,WeatherDisplay:10.37,2013-06-08 23:58:00,
2013-06-08 19:03:00,67.4,53.0,29.96,ENE,78,0.0,1.2,60,0.00,BKN,,0.02,213.0,WeatherDisplay:10.37,2013-06-09 00:03:00,
2013-06-08 19:08:00,67.8,52.9,29.96,East,79,0.2,3.5,59,0.00,BKN,,0.02,160.0,WeatherDisplay:10.37,2013-06-09 00:08:00,
2013-06-08 19:13:00,67.9,53.5,29.96,East,79,0.0,0.0,60,0.00,BKN,,0.02,102.0,WeatherDisplay:10.37,2013-06-09 00:13:00,
2013-06-08 19:18:00,67.9,53.5,29.96,East,79,0.0,1.2,60,0.00,BKN,,0.02,65.0,WeatherDisplay:10.37,2013-06-09 00:18:00,
2013-06-08 19:23:00,67.6,53.7,29.96,ENE,76,1.6,3.6,61,0.00,BKN,,0.02,44.0,WeatherDisplay:10.37,2013-06-09 00:23:00,
2013-06-08 19:28:00,67.3,54.3,29.96,East,97,0.0,0.0,63,0.00,BKN,,0.02,39.0,WeatherDisplay:10.37,2013-06-09 00:28:00,
2013-06-08 19:33:00,66.8,54.2,29.96,East,96,0.0,0.0,64,0.00,BKN,,0.02,39.0,WeatherDisplay:10.37,2013-06-09 00:33:00,
2013-06-08 19:38:00,66.4,54.3,29.96,East,96,0.0,0.0,65,0.00,BKN,,0.02,39.0,WeatherDisplay:10.37,2013-06-09 00:38:00,
2013-06-08 19:43:00,66.3,54.6,29.96,East,96,0.0,0.0,66,0.00,BKN,,0.02,35.0,WeatherDisplay:10.37,2013-06-09 00:43:00,
2013-06-08 19:48:00,66.0,54.3,29.96,East,96,0.0,2.3,66,0.00,BKN,,0.02,33.0,WeatherDisplay:10.37,2013-06-09 00:48:00,
2013-06-08 19:53:00,65.8,54.5,29.96,East,96,2.1,6.0,67,0.00,BKN,,0.02,32.0,WeatherDisplay:10.37,2013-06-09 00:53:00,
2013-06-08 19:58:00,65.6,54.3,29.96,East,96,0.0,0.0,67,0.00,BKN,,0.02,26.0,WeatherDisplay:10.37,2013-06-09 00:58:00,
2013-06-08 20:03:00,65.5,54.7,29.96,East,96,0.0,0.0,68,0.00,BKN,,0.02,23.0,WeatherDisplay:10.37,2013-06-09 01:03:00,
2013-06-08 20:08:00,65.0,54.6,29.96,East,96,0.0,0.0,69,0.00,BKN,,0.02,16.0,WeatherDisplay:10.37,2013-06-09 01:08:00,
2013-06-08 20:13:00,64.8,54.4,29.96,East,96,0.1,1.2,69,0.00,BKN,,0.02,11.0,WeatherDisplay:10.37,2013-06-09 01:13:00,
2013-06-08 20:18:00,64.5,54.5,29.96,East,96,0.6,2.4,70,0.00,BKN,,0.02,9.0,WeatherDisplay:10.37,2013-06-09 01:18:00,
2013-06-08 20:23:00,64.2,54.6,29.96,East,96,0.0,0.0,71,0.00,BKN,,0.02,7.0,WeatherDisplay:10.37,2013-06-09 01:23:00,
2013-06-08 20:28:00,63.9,54.3,29.96,East,96,0.0,0.0,71,0.00,BKN,,0.02,5.0,WeatherDisplay:10.37,2013-06-09 01:28:00,
2013-06-08 20:33:00,63.7,54.5,29.96,East,96,0.0,0.0,72,0.00,BKN,,0.02,0.0,WeatherDisplay:10.37,2013-06-09 01:33:00,
2013-06-08 20:38:00,63.4,54.6,29.96,East,96,0.0,0.0,73,0.00,BKN,,0.02,0.0,WeatherDisplay:10.37,2013-06-09 01:38:00,
2013-06-08 20:43:00,63.1,54.7,29.96,East,96,0.0,0.0,74,0.00,BKN,,0.02,0.0,WeatherDisplay:10.37,2013-06-09 01:43:00,
2013-06-08 20:48:00,62.7,54.3,29.96,East,96,0.0,1.2,74,0.00,BKN,,0.02,0.0,WeatherDisplay:10.37,2013-06-09 01:48:00,
2013-06-08 20:53:00,62.6,54.2,29.96,East,96,0.0,0.0,74,0.00,BKN,,0.02,0.0,WeatherDisplay:10.37,2013-06-09 01:53:00,
2013-06-08 20:58:00,62.3,53.9,29.96,East,96,0.0,0.0,74,0.00,BKN,,0.02,0.0,WeatherDisplay:10.37,2013-06-09 01:58:00,
2013-06-08 21:03:00,62.1,53.7,29.96,East,96,0.0,1.2,74,0.00,BKN,,0.02,0.0,WeatherDisplay:10.37,2013-06-09 02:03:00,
2013-06-08 21:08:00,61.8,53.8,29.96,East,96,0.0,0.0,75,0.00,BKN,,0.02,0.0,WeatherDisplay:10.37,2013-06-09 02:08:00,
2013-06-08 21:13:00,61.6,53.6,29.96,East,96,0.0,1.2,75,0.00,BKN,,0.02,0.0,WeatherDisplay:10.37,2013-06-09 02:13:00,
2013-06-08 21:18:00,61.5,53.5,29.96,East,96,0.0,2.3,75,0.00,BKN,,0.02,0.0,WeatherDisplay:10.37,2013-06-09 02:18:00,
2013-06-08 21:23:00,61.2,53.6,29.96,East,96,0.0,0.0,76,0.00,BKN,,0.02,0.0,WeatherDisplay:10.37,2013-06-09 02:23:00,
2013-06-08 21:28:00,61.0,53.4,29.96,East,96,0.0,0.0,76,0.00,BKN,,0.02,0.0,WeatherDisplay:10.37,2013-06-09 02:28:00,
2013-06-08 21:33:00,60.7,53.4,29.96,East,96,2.0,4.8,77,0.00,BKN,,0.02,0.0,WeatherDisplay:10.37,2013-06-09 02:33:00,
2013-06-08 21:38:00,60.5,53.3,29.96,East,96,0.0,1.2,77,0.00,BKN,,0.02,0.0,WeatherDisplay:10.37,2013-06-09 02:38:00,
2013-06-08 21:43:00,60.4,53.2,29.96,East,96,0.0,2.3,77,0.00,BKN,,0.02,0.0,WeatherDisplay:10.37,2013-06-09 02:43:00,
2013-06-08 21:48:00,60.2,53.3,29.96,East,96,0.0,0.0,78,0.00,BKN,,0.02,0.0,WeatherDisplay:10.37,2013-06-09 02:48:00,
2013-06-08 21:53:00,60.1,53.2,29.96,East,96,0.0,0.0,78,0.00,BKN,,0.02,0.0,WeatherDisplay:10.37,2013-06-09 02:53:00,
2013-06-08 21:58:00,60.1,53.2,29.96,East,96,0.0,0.0,78,0.00,BKN,,0.02,0.0,WeatherDisplay:10.37,2013-06-09 02:58:00,
2013-06-08 22:03:00,59.9,53.4,29.96,East,96,0.0,0.0,79,0.00,BKN,,0.02,0.0,WeatherDisplay:10.37,2013-06-09 03:03:00,
2013-06-08 22:08:00,59.8,53.3,29.96,East,96,0.0,0.0,79,0.00,BKN,,0.02,0.0,WeatherDisplay:10.37,2013-06-09 03:08:00,
2013-06-08 22:13:00,59.6,53.4,29.96,East,96,0.0,0.0,80,0.00,BKN,,0.02,0.0,WeatherDisplay:10.37,2013-06-09 03:13:00,
2013-06-08 22:18:00,59.5,53.3,29.97,East,96,0.0,0.0,80,0.00,BKN,,0.02,0.0,WeatherDisplay:10.37,2013-06-09 03:18:00,
2013-06-08 22:23:00,59.3,53.1,29.97,East,96,0.0,0.0,80,0.00,BKN,,0.02,0.0,WeatherDisplay:10.37,2013-06-09 03:23:00,
2013-06-08 22:28:00,59.3,53.5,29.97,East,96,0.0,0.0,81,0.00,BKN,,0.02,0.0,WeatherDisplay:10.37,2013-06-09 03:28:00,
2013-06-08 22:33:00,59.2,53.4,29.98,East,96,0.0,0.0,81,0.00,BKN,,0.02,0.0,WeatherDisplay:10.37,2013-06-09 03:33:00,
2013-06-08 22:38:00,59.2,53.7,29.98,East,96,0.0,0.0,82,0.00,BKN,,0.02,0.0,WeatherDisplay:10.37,2013-06-09 03:38:00,
2013-06-08 22:43:00,59.2,53.7,29.98,East,96,0.0,0.0,82,0.00,BKN,,0.02,0.0,WeatherDisplay:10.37,2013-06-09 03:43:00,
2013-06-08 22:48:00,59.2,53.7,29.97,East,96,0.0,0.0,82,0.00,BKN,,0.02,0.0,WeatherDisplay:10.37,2013-06-09 03:48:00,
2013-06-08 22:53:00,59.0,53.5,29.97,East,96,0.0,0.0,82,0.00,BKN,,0.02,0.0,WeatherDisplay:10.37,2013-06-09 03:53:00,
2013-06-08 22:58:00,59.0,53.8,29.97,East,96,0.0,0.0,83,0.00,BKN,,0.02,0.0,WeatherDisplay:10.37,2013-06-09 03:58:00,
2013-06-08 23:01:00,59.0,53.8,29.97,East,96,0.0,0.0,83,0.00,BKN,,0.02,0.0,WeatherDisplay:10.37,2013-06-09 04:01:00,
2013-06-08 23:02:00,59.0,53.8,29.97,East,96,0.0,0.0,83,0.00,BKN,,0.02,0.0,WeatherDisplay:10.37,2013-06-09 04:02:00,
2013-06-08 23:07:00,59.0,53.8,29.97,East,96,0.0,0.0,83,0.00,BKN,,0.02,0.0,WeatherDisplay:10.37,2013-06-09 04:07:00,
2013-06-08 23:12:00,59.0,53.8,29.97,East,96,0.0,0.0,83,0.00,BKN,,0.02,0.0,WeatherDisplay:10.37,2013-06-09 04:12:00,
2013-06-08 23:17:00,59.0,53.8,29.97,East,96,0.0,1.2,83,0.00,BKN,,0.02,0.0,WeatherDisplay:10.37,2013-06-09 04:17:00,
2013-06-08 23:22:00,59.2,54.0,29.97,East,96,0.0,1.2,83,0.00,BKN,,0.02,0.0,WeatherDisplay:10.37,2013-06-09 04:22:00,
2013-06-08 23:27:00,59.2,54.0,29.97,East,96,0.1,1.2,83,0.00,BKN,,0.02,0.0,WeatherDisplay:10.37,2013-06-09 04:27:00,
2013-06-08 23:32:00,59.2,54.0,29.97,East,96,0.0,1.2,83,0.00,BKN,,0.02,0.0,WeatherDisplay:10.37,2013-06-09 04:32:00,
2013-06-08 23:37:00,59.3,53.8,29.97,East,96,0.0,0.0,82,0.00,BKN,,0.02,0.0,WeatherDisplay:10.37,2013-06-09 04:37:00,
2013-06-08 23:42:00,59.3,53.8,29.97,East,96,0.0,0.0,82,0.00,BKN,,0.02,0.0,WeatherDisplay:10.37,2013-06-09 04:42:00,
2013-06-08 23:47:00,59.3,53.8,29.98,East,96,0.4,4.6,82,0.00,BKN,,0.02,0.0,WeatherDisplay:10.37,2013-06-09 04:47:00,
2013-06-08 23:52:00,59.3,53.8,29.98,East,96,0.1,1.2,82,0.00,BKN,,0.02,0.0,WeatherDisplay:10.37,2013-06-09 04:52:00,
2013-06-08 23:57:00,59.3,53.8,29.98,East,96,0.0,0.0,82,0.00,BKN,,0.02,0.0,WeatherDisplay:10.37,2013-06-09 04:57:00,